Moses Lake, WA
on Wednesday, November 28, 2012

Wednesday
Previous Day Next Day
Daily Summary
 ActualAverageRecord
Temperature
Mean Temperature °F 33°F  
Max Temperature 37°F 39°F 59°F (2014)
Min Temperature 26°F 26°F -4°F (1985)
Degree Days
Heating Degree Days 33 32  
Month to date heating degree days 688 757  
Since 1 July heating degree days 1213 1394  
Cooling Degree Days 0 0  
Month to date cooling degree days 0 0  
Year to date cooling degree days 719 615  
Moisture
Dew Point 28°F   
Average Humidity 91    
Maximum Humidity 100    
Minimum Humidity 82    
Precipitation
Precipitation 0.07 in 0.05 in 0.33 in (2001)
Month to date precipitation 1.12 1.11  
Year to date precipitation 7.72 7.58  
Wind
Wind Speed 3 mph   
Max Wind Speed 15 mph   
Max Gust Speed 17 mph   
Visibility 3 miles   
Events Fog , Rain   

Key: T is trace of precipitation, MM is missing value
Source: NWS Daily Summary
Time(PST)TemperatureDew PointHumidity Pressure Visibility Wind DirectionWind SpeedGust SpeedPrecipitationEvents Conditions
12:40 AM 30.2°F 28.4°F 93% 30.10 in 0.2 miles NE 3.5 mph - N/A Fog Light Freezing Fog
12:52 AM 30.0°F 28.0°F 92% 30.14 in 0.5 miles Calm Calm - N/A Fog Light Freezing Fog
1:13 AM 30.2°F 28.4°F 93% 30.10 in 0.2 miles Calm Calm - N/A Fog Light Freezing Fog
1:29 AM 30.2°F 26.6°F 86% 30.10 in 0.5 miles Calm Calm - N/A Fog Light Freezing Fog
1:39 AM 30.2°F 28.4°F 93% 30.10 in 0.2 miles Calm Calm - N/A Fog Light Freezing Fog
1:52 AM 30.0°F 28.0°F 92% 30.14 in 0.2 miles Calm Calm - N/A Fog Light Freezing Fog
2:33 AM 28.4°F 26.6°F 93% 30.09 in 0.5 miles Calm Calm - N/A Fog Light Freezing Fog
2:43 AM 28.4°F 26.6°F 93% 30.09 in 0.2 miles Calm Calm - N/A Fog Light Freezing Fog
2:52 AM 28.0°F 26.1°F 92% 30.13 in 0.2 miles Calm Calm - N/A Fog Light Freezing Fog
3:38 AM 28.4°F 24.8°F 86% 30.07 in 0.5 miles Calm Calm - N/A Fog Light Freezing Fog
3:52 AM 27.0°F 26.1°F 96% 30.11 in 0.5 miles Calm Calm - N/A Fog Light Freezing Fog
4:08 AM 28.4°F 24.8°F 86% 30.06 in 0.2 miles Calm Calm - N/A Fog Light Freezing Fog
4:30 AM 26.6°F 24.8°F 93% 30.05 in 0.8 miles Calm Calm - N/A   Mist
4:39 AM 26.6°F 24.8°F 93% 30.04 in 1.2 miles NNE 3.5 mph - N/A   Overcast
4:52 AM 27.0°F 25.0°F 92% 30.10 in 0.8 miles Calm Calm - N/A   Overcast
5:06 AM 26.6°F 24.8°F 93% 30.05 in 0.2 miles Calm Calm - 0.00 in Fog Light Freezing Fog
5:52 AM 27.0°F 25.0°F 92% 30.07 in 0.2 miles Calm Calm - 0.00 in Fog Light Freezing Fog
6:39 AM 26.6°F 24.8°F 93% 30.02 in 0.5 miles Calm Calm - N/A Fog Light Freezing Fog
6:47 AM 26.6°F 26.6°F 100% 30.03 in 0.2 miles Calm Calm - N/A Fog Light Freezing Fog
6:52 AM 27.0°F 25.0°F 92% 30.06 in 0.2 miles Calm Calm - N/A Fog Light Freezing Fog
7:52 AM 27.0°F 24.1°F 89% 30.04 in 0.2 miles North 3.5 mph - N/A Fog Light Freezing Fog
8:17 AM 26.6°F 24.8°F 93% 30.00 in 0.8 miles Calm Calm - N/A   Mist
8:40 AM 26.6°F 24.8°F 93% 29.99 in 0.2 miles Calm Calm - N/A Fog Light Freezing Fog
8:52 AM 27.0°F 25.0°F 92% 30.04 in 0.5 miles Calm Calm - N/A Fog Light Freezing Fog
9:07 AM 26.6°F 24.8°F 93% 29.98 in 0.5 miles Calm Calm - N/A Fog Light Freezing Fog
9:21 AM 28.4°F 24.8°F 86% 29.98 in 0.5 miles Calm Calm - N/A Fog Light Freezing Fog
9:28 AM 28.4°F 24.8°F 86% 29.97 in 0.8 miles North 3.5 mph - N/A   Overcast
9:36 AM 28.4°F 24.8°F 86% 29.97 in 1.5 miles Calm Calm - N/A   Overcast
9:41 AM 28.4°F 24.8°F 86% 29.96 in 3.0 miles North 3.5 mph - N/A   Overcast
9:52 AM 28.9°F 26.1°F 89% 30.00 in 2.5 miles North 4.6 mph - N/A   Overcast
10:08 AM 30.2°F 26.6°F 86% 29.97 in 9.0 miles Calm Calm - N/A   Partly Cloudy
10:52 AM 32.0°F 28.9°F 88% 29.98 in 10.0 miles North 3.5 mph - N/A   Partly Cloudy
11:52 AM 33.1°F 32.0°F 96% 29.95 in 10.0 miles Calm Calm - N/A   Clear
12:52 PM 35.1°F 32.0°F 89% 29.91 in 10.0 miles Calm Calm - N/A   Clear
1:52 PM 35.1°F 30.9°F 85% 29.88 in 10.0 miles SSW 4.6 mph - N/A   Mostly Cloudy
2:52 PM 36.0°F 32.0°F 86% 29.87 in 10.0 miles SSE 6.9 mph - N/A   Overcast
3:52 PM 34.0°F 30.9°F 89% 29.88 in 7.0 miles South 4.6 mph - 0.02 in Rain Light Rain
4:18 PM 33.8°F 30.2°F 87% 29.82 in 6.0 miles Calm Calm - 0.03 in Rain Light Rain
4:52 PM 33.1°F 30.0°F 89% 29.85 in 6.0 miles East 5.8 mph - 0.04 in   Overcast
5:52 PM 33.1°F 30.9°F 92% 29.86 in 9.0 miles Calm Calm - 0.00 in   Overcast
6:52 PM 33.1°F 30.9°F 92% 29.86 in 6.0 miles West 3.5 mph - 0.01 in   Overcast
7:32 PM 33.8°F 32.0°F 93% 29.83 in 9.0 miles Calm Calm - 0.00 in   Overcast
7:41 PM 33.8°F 30.2°F 87% 29.83 in 9.0 miles Calm Calm - 0.00 in   Overcast
7:52 PM 34.0°F 30.9°F 89% 29.87 in 7.0 miles Calm Calm - 0.00 in   Overcast
8:45 PM 32.0°F 30.2°F 93% 29.84 in 4.0 miles SE 3.5 mph - N/A   Mostly Cloudy
8:52 PM 32.0°F 30.9°F 96% 29.89 in 4.0 miles Calm Calm - N/A   Overcast
9:52 PM 34.0°F 30.9°F 89% 29.90 in 9.0 miles South 5.8 mph - N/A   Overcast
10:43 PM 33.8°F 30.2°F 87% 29.85 in 5.0 miles SSE 3.5 mph - N/A   Overcast
10:52 PM 33.1°F 30.9°F 92% 29.90 in 5.0 miles SSE 5.8 mph - N/A   Overcast
11:52 PM 33.1°F 30.0°F 89% 29.91 in 8.0 miles SSE 6.9 mph - N/A   Overcast
Moon Phase
Nov. 28 Dec. 06 Dec. 13 Dec. 20 Dec. 28
Sunrise:07:20 AM (PST) Moon Rise:04:28 PM (PST)11/28
Sunset:04:10 PM (PST) Moon Set:07:21 AM (PST)11/28

Copyright © 2014 The Weather Underground, Inc.